WMT8734 LPPT-LRCL

Flight info

Callsign WMT8734
Flight time N/A
Altitude 38000
Route ORVED DCT RODAP DCT RAKOD DCT UREDI DCT PONEN DCT SEROX DCT VILAR DCT KARES DCT BISES DCT BCN DCT SALON DCT AGENA DCT BODEQ DCT LUMAS DCT OBLAD DCT EPOLO DCT NOSTA DCT EGHIN DCT LABIN/N0429F390 DCT RJK DCT VEBAL DCT RUPUG DCT ATSOS
Aircraft A20N/M-SDE2E3FGHIRWXY/LB1

Departure

Time 2026-05-06 11:07
Airport Lisbon Humberto Delgado Airport (LPPT)

Arrival

Time N/A
Airport Avram Iancu Cluj International Airport (LRCL)
Time Latitude Longitude Altitude Speed Heading
2026-05-06 10:49 38.76475 -9.13638 357 ft 0 kts 168°
2026-05-06 11:00 38.76483 -9.13640 351 ft 4 kts 168°
2026-05-06 11:00 38.76509 -9.13648 351 ft 4 kts 171°
2026-05-06 11:00 38.76535 -9.13648 353 ft 4 kts 198°
2026-05-06 11:00 38.76555 -9.13631 359 ft 4 kts 247°
2026-05-06 11:01 38.76559 -9.13617 356 ft 1 kts 258°
2026-05-06 11:01 38.76559 -9.13616 357 ft 0 kts 258°
2026-05-06 11:04 38.76557 -9.13630 359 ft 4 kts 263°
2026-05-06 11:04 38.76574 -9.13664 355 ft 6 kts 323°
2026-05-06 11:04 38.76618 -9.13702 355 ft 10 kts 277°
2026-05-06 11:04 38.76602 -9.13804 349 ft 12 kts 257°
2026-05-06 11:05 38.76585 -9.13914 357 ft 13 kts 257°
2026-05-06 11:05 38.76553 -9.14020 354 ft 13 kts 229°
2026-05-06 11:05 38.76501 -9.14105 351 ft 12 kts 247°
2026-05-06 11:05 38.76512 -9.14228 344 ft 17 kts 293°
2026-05-06 11:06 38.76559 -9.14372 334 ft 18 kts 293°
2026-05-06 11:06 38.76619 -9.14403 335 ft 8 kts 24°
2026-05-06 11:06 38.76670 -9.14376 338 ft 12 kts 22°
2026-05-06 11:06 38.76935 -9.14235 357 ft 72 kts 22°
2026-05-06 11:07 38.77576 -9.13892 369 ft 127 kts 22°
2026-05-06 11:07 38.78528 -9.13376 480 ft 158 kts 18°
2026-05-06 11:07 38.79532 -9.12779 975 ft 162 kts 26°
2026-05-06 11:07 38.80464 -9.12031 1701 ft 158 kts 27°
2026-05-06 11:08 38.81430 -9.11264 2105 ft 173 kts 26°
2026-05-06 11:08 38.82537 -9.10445 2506 ft 194 kts 27°
2026-05-06 11:08 38.83809 -9.09536 2861 ft 225 kts 26°
2026-05-06 11:08 38.85246 -9.08530 3438 ft 243 kts 27°
2026-05-06 11:09 38.86752 -9.07483 4212 ft 249 kts 26°
2026-05-06 11:09 38.88292 -9.06392 5031 ft 256 kts 30°
2026-05-06 11:09 38.89649 -9.04910 5924 ft 260 kts 49°
2026-05-06 11:09 38.90608 -9.02910 6728 ft 266 kts 61°
2026-05-06 11:10 38.91425 -9.00751 7459 ft 272 kts 62°
2026-05-06 11:10 38.92232 -8.98535 8222 ft 276 kts 63°
2026-05-06 11:10 38.93056 -8.96282 8988 ft 281 kts 64°
2026-05-06 11:10 38.93900 -8.93992 9754 ft 286 kts 64°
2026-05-06 11:11 38.94766 -8.91653 10355 ft 297 kts 64°
2026-05-06 11:11 38.95684 -8.89183 10679 ft 316 kts 64°
2026-05-06 11:11 38.96659 -8.86562 11031 ft 333 kts 64°
2026-05-06 11:11 38.97677 -8.83826 11591 ft 343 kts 64°
2026-05-06 11:12 38.98713 -8.81040 12297 ft 348 kts 64°
2026-05-06 11:12 38.99767 -8.78204 12937 ft 356 kts 63°
2026-05-06 11:12 39.00825 -8.75355 13670 ft 359 kts 64°
2026-05-06 11:12 39.01921 -8.72400 14355 ft 364 kts 63°
2026-05-06 11:13 39.03017 -8.69440 15013 ft 368 kts 63°
2026-05-06 11:13 39.04122 -8.66455 15733 ft 371 kts 63°
2026-05-06 11:13 39.05237 -8.63440 16384 ft 376 kts 63°
2026-05-06 11:13 39.06351 -8.60425 17014 ft 381 kts 63°
2026-05-06 11:14 39.07494 -8.57328 17660 ft 385 kts 63°
2026-05-06 11:14 39.08652 -8.54186 18290 ft 390 kts 63°
2026-05-06 11:14 39.09819 -8.51018 18850 ft 394 kts 63°
2026-05-06 11:14 39.10997 -8.47815 19426 ft 397 kts 63°
2026-05-06 11:15 39.12183 -8.44584 20000 ft 400 kts 64°
2026-05-06 11:15 39.13380 -8.41325 20570 ft 404 kts 64°
2026-05-06 11:15 39.14582 -8.38044 21153 ft 407 kts 64°
2026-05-06 11:15 39.15796 -8.34730 21713 ft 410 kts 64°
2026-05-06 11:16 39.17018 -8.31390 22262 ft 414 kts 64°
2026-05-06 11:16 39.18250 -8.28018 22819 ft 417 kts 64°
2026-05-06 11:16 39.19490 -8.24619 23375 ft 421 kts 64°
2026-05-06 11:16 39.20739 -8.21194 23856 ft 424 kts 64°
2026-05-06 11:17 39.21997 -8.17737 24297 ft 427 kts 64°
2026-05-06 11:17 39.23264 -8.14254 24738 ft 430 kts 64°
2026-05-06 11:17 39.24538 -8.10749 25166 ft 433 kts 64°
2026-05-06 11:17 39.25817 -8.07222 25581 ft 436 kts 64°
2026-05-06 11:18 39.27107 -8.03665 25992 ft 439 kts 64°
2026-05-06 11:18 39.28316 -8.00038 26390 ft 442 kts 68°
2026-05-06 11:18 39.29410 -7.96320 26789 ft 444 kts 69°
2026-05-06 11:18 39.30488 -7.92565 27183 ft 447 kts 69°
2026-05-06 11:19 39.31569 -7.88792 27600 ft 449 kts 69°
2026-05-06 11:19 39.32655 -7.85008 28061 ft 450 kts 69°
2026-05-06 11:19 39.33745 -7.81214 28446 ft 452 kts 69°
2026-05-06 11:19 39.34843 -7.77394 28799 ft 455 kts 69°
2026-05-06 11:20 39.35929 -7.73612 29152 ft 457 kts 69°
2026-05-06 11:20 39.37035 -7.69754 29497 ft 460 kts 69°
2026-05-06 11:20 39.38198 -7.65888 29859 ft 462 kts 65°
2026-05-06 11:20 39.39614 -7.62144 30172 ft 464 kts 62°
2026-05-06 11:21 39.41129 -7.58460 30454 ft 466 kts 60°
2026-05-06 11:21 39.42705 -7.54775 30730 ft 468 kts 60°
2026-05-06 11:21 39.44297 -7.51110 31101 ft 468 kts 60°
2026-05-06 11:21 39.45892 -7.47438 31490 ft 467 kts 60°
2026-05-06 11:22 39.47479 -7.43766 31859 ft 467 kts 60°
2026-05-06 11:22 39.49051 -7.40105 32201 ft 466 kts 60°
2026-05-06 11:22 39.50622 -7.36427 32564 ft 466 kts 60°
2026-05-06 11:22 39.52187 -7.32747 32897 ft 466 kts 60°
2026-05-06 11:23 39.53743 -7.29076 33216 ft 466 kts 60°
2026-05-06 11:23 39.55303 -7.25391 33542 ft 466 kts 60°
2026-05-06 11:23 39.56862 -7.21705 33848 ft 466 kts 60°
2026-05-06 11:23 39.58415 -7.18025 34086 ft 467 kts 60°
2026-05-06 11:24 39.59975 -7.14329 34356 ft 466 kts 60°
2026-05-06 11:24 39.61524 -7.10653 34634 ft 465 kts 60°
2026-05-06 11:24 39.63071 -7.06960 34869 ft 466 kts 62°
2026-05-06 11:24 39.64512 -7.03189 35068 ft 466 kts 64°
2026-05-06 11:25 39.65855 -6.99351 35287 ft 467 kts 66°
2026-05-06 11:25 39.67147 -6.95494 35489 ft 467 kts 66°
2026-05-06 11:25 39.68429 -6.91612 35684 ft 467 kts 66°
2026-05-06 11:25 39.69714 -6.87729 35908 ft 468 kts 66°
2026-05-06 11:26 39.71004 -6.83859 36089 ft 468 kts 66°
2026-05-06 11:26 39.72293 -6.80022 36211 ft 470 kts 66°
2026-05-06 11:26 39.73604 -6.76134 36367 ft 471 kts 66°
2026-05-06 11:26 39.74924 -6.72231 36564 ft 471 kts 65°
2026-05-06 11:27 39.76240 -6.68340 36746 ft 471 kts 65°
2026-05-06 11:27 39.77560 -6.64434 36926 ft 471 kts 65°
2026-05-06 11:27 39.78878 -6.60525 37102 ft 472 kts 66°
2026-05-06 11:27 39.80195 -6.56612 37277 ft 472 kts 66°
2026-05-06 11:28 39.81506 -6.52710 37448 ft 472 kts 66°
2026-05-06 11:28 39.82819 -6.48791 37599 ft 472 kts 66°
2026-05-06 11:28 39.84128 -6.44882 37762 ft 473 kts 66°
2026-05-06 11:28 39.85443 -6.40948 37868 ft 474 kts 66°
2026-05-06 11:29 39.86711 -6.36976 37964 ft 475 kts 68°
2026-05-06 11:29 39.89029 -6.28982 37970 ft 475 kts 69°
2026-05-06 11:30 39.91282 -6.20910 37970 ft 474 kts 69°
2026-05-06 11:30 39.93546 -6.12845 37969 ft 474 kts 69°
2026-05-06 11:31 39.95829 -6.04769 37971 ft 475 kts 69°
2026-05-06 11:31 39.98115 -5.96687 37972 ft 476 kts 69°
2026-05-06 11:32 40.00398 -5.88592 37967 ft 476 kts 69°
2026-05-06 11:32 40.02674 -5.80492 37965 ft 476 kts 69°
2026-05-06 11:33 40.04944 -5.72387 37972 ft 476 kts 69°
2026-05-06 11:33 40.07215 -5.64254 37971 ft 477 kts 69°
2026-05-06 11:34 40.09484 -5.56098 37969 ft 477 kts 69°
2026-05-06 11:34 40.11746 -5.47946 37968 ft 478 kts 69°
2026-05-06 11:35 40.14001 -5.39790 37973 ft 477 kts 70°
2026-05-06 11:35 40.16246 -5.31642 37970 ft 477 kts 70°
2026-05-06 11:36 40.18493 -5.23466 37971 ft 478 kts 70°
2026-05-06 11:36 40.20732 -5.15289 37971 ft 478 kts 70°
2026-05-06 11:37 40.22954 -5.07147 37975 ft 478 kts 70°
2026-05-06 11:37 40.25196 -4.98906 37974 ft 478 kts 70°
2026-05-06 11:38 40.27419 -4.90711 37970 ft 478 kts 70°
2026-05-06 11:38 40.29629 -4.82533 37973 ft 479 kts 70°
2026-05-06 11:39 40.31847 -4.74301 37977 ft 480 kts 70°
2026-05-06 11:39 40.34061 -4.66060 37972 ft 479 kts 70°
2026-05-06 11:40 40.36268 -4.57814 37968 ft 479 kts 70°
2026-05-06 11:40 40.38474 -4.49543 37973 ft 480 kts 70°
2026-05-06 11:41 40.40672 -4.41274 37976 ft 480 kts 70°
2026-05-06 11:41 40.42494 -4.34401 37961 ft 479 kts 70°
2026-05-06 11:42 40.44678 -4.26138 37970 ft 479 kts 70°
2026-05-06 11:42 40.46854 -4.17875 37963 ft 479 kts 70°
2026-05-06 11:43 40.49029 -4.09591 37982 ft 479 kts 70°
2026-05-06 11:43 40.51194 -4.01314 37986 ft 479 kts 70°
2026-05-06 11:44 40.54434 -3.88878 37984 ft 479 kts 70°
2026-05-06 11:44 40.56585 -3.80584 37991 ft 479 kts 70°
2026-05-06 11:45 40.58732 -3.72279 37990 ft 480 kts 70°
2026-05-06 11:45 40.60879 -3.63948 37989 ft 480 kts 70°
2026-05-06 11:46 40.63016 -3.55623 37988 ft 480 kts 70°
2026-05-06 11:46 40.65151 -3.47280 37991 ft 480 kts 71°
2026-05-06 11:47 40.67280 -3.38930 37986 ft 481 kts 71°
2026-05-06 11:47 40.69405 -3.30571 37986 ft 481 kts 71°
2026-05-06 11:48 40.71523 -3.22205 37984 ft 481 kts 71°
2026-05-06 11:48 40.73635 -3.13834 37981 ft 481 kts 71°
2026-05-06 11:49 40.75742 -3.05458 37977 ft 481 kts 71°
2026-05-06 11:49 40.77835 -2.97106 37977 ft 483 kts 71°
2026-05-06 11:50 40.79938 -2.88684 37980 ft 484 kts 71°
2026-05-06 11:50 40.82035 -2.80254 37979 ft 483 kts 71°
2026-05-06 11:51 40.84129 -2.71806 37979 ft 484 kts 71°
2026-05-06 11:51 40.86215 -2.63365 37980 ft 484 kts 71°
2026-05-06 11:52 40.88298 -2.54903 38000 ft 485 kts 71°
2026-05-06 11:52 40.90376 -2.46428 37985 ft 483 kts 71°
2026-05-06 11:53 40.92441 -2.37978 37988 ft 483 kts 71°
2026-05-06 11:53 40.94500 -2.29524 37987 ft 483 kts 72°
2026-05-06 11:54 40.96554 -2.21058 37983 ft 484 kts 72°
2026-05-06 11:54 40.98609 -2.12559 37983 ft 484 kts 72°
2026-05-06 11:55 41.00653 -2.04069 37986 ft 484 kts 72°
2026-05-06 11:55 41.02693 -1.95571 37987 ft 484 kts 72°
2026-05-06 11:56 41.04726 -1.87068 37982 ft 484 kts 72°
2026-05-06 11:56 41.06760 -1.78528 37986 ft 485 kts 72°
2026-05-06 11:57 41.08782 -1.70008 37991 ft 485 kts 72°
2026-05-06 11:57 41.10798 -1.61483 37992 ft 485 kts 72°
2026-05-06 11:58 41.12807 -1.52953 37996 ft 485 kts 72°
2026-05-06 11:58 41.14795 -1.44480 37997 ft 485 kts 73°
2026-05-06 11:59 41.16795 -1.35928 38001 ft 485 kts 73°
2026-05-06 11:59 41.18786 -1.27379 38003 ft 485 kts 73°
2026-05-06 12:00 41.20770 -1.18829 38005 ft 485 kts 73°
2026-05-06 12:00 41.22752 -1.10254 38001 ft 485 kts 73°
2026-05-06 12:01 41.24728 -1.01675 37993 ft 486 kts 73°
2026-05-06 12:01 41.26698 -0.93086 37996 ft 486 kts 73°
2026-05-06 12:02 41.28662 -0.84492 37991 ft 486 kts 73°
2026-05-06 12:02 41.30623 -0.75877 37979 ft 486 kts 74°
2026-05-06 12:03 41.32576 -0.67265 37987 ft 487 kts 74°
2026-05-06 12:03 41.34515 -0.58640 37981 ft 487 kts 76°
2026-05-06 12:04 41.35324 -0.49780 37974 ft 482 kts 90°
2026-05-06 12:04 41.35375 -0.40920 37981 ft 481 kts 93°
2026-05-06 12:05 41.35276 -0.32018 37984 ft 481 kts 93°
2026-05-06 12:05 41.35167 -0.23098 37986 ft 481 kts 93°
2026-05-06 12:06 41.35074 -0.14192 37972 ft 481 kts 93°
2026-05-06 12:06 41.34984 -0.05286 37978 ft 481 kts 93°
2026-05-06 12:07 41.34890 0.03618 37977 ft 482 kts 93°
2026-05-06 12:07 41.34789 0.12530 37966 ft 482 kts 94°
2026-05-06 12:08 41.34679 0.21467 37969 ft 483 kts 94°
2026-05-06 12:08 41.34562 0.30407 37966 ft 484 kts 94°
2026-05-06 12:09 41.34438 0.39351 37955 ft 484 kts 94°
2026-05-06 12:09 41.34306 0.48325 37964 ft 485 kts 94°
2026-05-06 12:10 41.34168 0.57303 37967 ft 486 kts 94°
2026-05-06 12:10 41.34023 0.66299 37962 ft 486 kts 94°
2026-05-06 12:11 41.33871 0.75223 37958 ft 486 kts 94°
2026-05-06 12:11 41.33712 0.84212 37952 ft 487 kts 94°
2026-05-06 12:12 41.33544 0.93221 37953 ft 487 kts 94°
2026-05-06 12:12 41.33370 1.02249 37960 ft 487 kts 94°
2026-05-06 12:13 41.33189 1.11257 37959 ft 487 kts 94°
2026-05-06 12:13 41.33001 1.20266 37963 ft 488 kts 95°
2026-05-06 12:14 41.32806 1.29295 37958 ft 488 kts 95°
2026-05-06 12:14 41.32605 1.38245 37957 ft 487 kts 95°
2026-05-06 12:15 41.32398 1.47195 37953 ft 487 kts 95°
2026-05-06 12:15 41.32181 1.56263 37947 ft 487 kts 95°
2026-05-06 12:16 41.31959 1.65256 37950 ft 486 kts 95°
2026-05-06 12:16 41.31730 1.74195 37948 ft 486 kts 95°
2026-05-06 12:17 41.31492 1.83178 37948 ft 486 kts 95°
2026-05-06 12:17 41.31248 1.92158 37947 ft 486 kts 96°
2026-05-06 12:18 41.30996 2.01151 37967 ft 486 kts 96°
2026-05-06 12:18 41.30931 2.10140 37966 ft 489 kts 86°
2026-05-06 12:19 41.32152 2.19059 37966 ft 491 kts 79°
2026-05-06 12:19 41.33701 2.27918 37962 ft 492 kts 78°
2026-05-06 12:20 41.35308 2.36772 37959 ft 492 kts 78°
2026-05-06 12:20 41.36879 2.45562 37958 ft 492 kts 79°
2026-05-06 12:21 41.38435 2.54423 37958 ft 492 kts 79°
2026-05-06 12:21 41.39980 2.63305 37958 ft 492 kts 79°
2026-05-06 12:22 41.41517 2.72179 37956 ft 492 kts 79°
2026-05-06 12:22 41.43049 2.81069 37962 ft 493 kts 79°
2026-05-06 12:23 41.44578 2.89982 37960 ft 493 kts 79°
2026-05-06 12:23 41.46098 2.98883 37963 ft 493 kts 79°
2026-05-06 12:24 41.47612 3.07789 37950 ft 493 kts 79°
2026-05-06 12:24 41.49120 3.16715 37961 ft 493 kts 80°
2026-05-06 12:25 41.50609 3.25570 37960 ft 493 kts 80°
2026-05-06 12:25 41.52101 3.34490 37966 ft 493 kts 80°
2026-05-06 12:26 41.53588 3.43425 37964 ft 493 kts 80°
2026-05-06 12:26 41.55065 3.52350 37962 ft 493 kts 80°
2026-05-06 12:27 41.56536 3.61293 37963 ft 493 kts 80°
2026-05-06 12:27 41.58000 3.70240 37963 ft 492 kts 80°
2026-05-06 12:28 41.59454 3.79175 37963 ft 492 kts 80°
2026-05-06 12:28 41.60902 3.88113 37966 ft 492 kts 81°
2026-05-06 12:29 41.62337 3.97004 37963 ft 492 kts 81°
2026-05-06 12:29 41.63780 4.05986 37963 ft 492 kts 81°
2026-05-06 12:30 41.65203 4.14884 37966 ft 492 kts 81°
2026-05-06 12:30 41.66394 4.22374 37958 ft 492 kts 81°
2026-05-06 12:31 41.67810 4.31320 37966 ft 493 kts 81°
2026-05-06 12:31 41.69224 4.40303 37990 ft 493 kts 81°
2026-05-06 12:32 41.70633 4.49302 37962 ft 493 kts 81°
2026-05-06 12:32 41.72023 4.58227 37949 ft 492 kts 81°
2026-05-06 12:33 41.73439 4.67216 37966 ft 494 kts 79°
2026-05-06 12:33 41.75280 4.76103 37969 ft 495 kts 75°
2026-05-06 12:34 41.77307 4.84887 37966 ft 495 kts 75°
2026-05-06 12:34 41.79322 4.93726 37963 ft 495 kts 76°
2026-05-06 12:35 41.82143 5.02149 37962 ft 498 kts 55°
2026-05-06 12:35 41.86610 5.09237 37961 ft 498 kts 46°
2026-05-06 12:36 41.91400 5.15904 37963 ft 498 kts 44°
2026-05-06 12:36 41.96268 5.22549 37963 ft 498 kts 44°
2026-05-06 12:37 42.01112 5.29234 37960 ft 499 kts 45°
2026-05-06 12:37 42.05902 5.35910 37957 ft 499 kts 45°
2026-05-06 12:38 42.10718 5.42654 37961 ft 499 kts 45°
2026-05-06 12:38 42.15540 5.49423 37955 ft 499 kts 45°
2026-05-06 12:39 42.20351 5.56190 37955 ft 499 kts 45°
2026-05-06 12:39 42.25135 5.62933 37955 ft 499 kts 45°
2026-05-06 12:40 42.29939 5.69719 37955 ft 499 kts 45°
2026-05-06 12:40 42.34713 5.76481 37955 ft 499 kts 45°
2026-05-06 12:41 42.39507 5.83286 37949 ft 499 kts 45°
2026-05-06 12:41 42.44305 5.90113 37949 ft 499 kts 45°
2026-05-06 12:42 42.49059 5.96893 37944 ft 499 kts 45°
2026-05-06 12:42 42.53855 6.03750 37943 ft 499 kts 45°
2026-05-06 12:43 42.58598 6.10547 37921 ft 499 kts 46°
2026-05-06 12:43 42.63353 6.17377 37933 ft 499 kts 46°
2026-05-06 12:44 42.68118 6.24239 37930 ft 499 kts 46°
2026-05-06 12:44 42.72886 6.31122 37925 ft 498 kts 46°
2026-05-06 12:45 42.77643 6.38003 37928 ft 499 kts 46°
2026-05-06 12:46 42.84739 6.48301 37923 ft 498 kts 46°
2026-05-06 12:46 42.89531 6.55161 37919 ft 498 kts 44°
2026-05-06 12:47 42.94531 6.61632 37909 ft 497 kts 41°
2026-05-06 12:47 42.99635 6.68046 37909 ft 497 kts 41°
2026-05-06 12:48 43.04712 6.74485 37917 ft 497 kts 42°
2026-05-06 12:48 43.09738 6.80930 37901 ft 497 kts 42°
2026-05-06 12:49 43.14777 6.87427 37894 ft 497 kts 42°
2026-05-06 12:49 43.19813 6.93938 37896 ft 497 kts 42°
2026-05-06 12:50 43.24821 7.00424 37885 ft 497 kts 42°
2026-05-06 12:50 43.29849 7.06950 37877 ft 497 kts 42°
2026-05-06 12:51 43.34874 7.13489 37873 ft 497 kts 42°
2026-05-06 12:51 43.39894 7.20036 37869 ft 497 kts 43°
2026-05-06 12:52 43.44892 7.26570 37867 ft 496 kts 43°
2026-05-06 12:52 43.49873 7.33098 37871 ft 496 kts 43°
2026-05-06 12:53 43.54883 7.39679 37874 ft 496 kts 43°
2026-05-06 12:53 43.59883 7.46263 37876 ft 496 kts 43°
2026-05-06 12:54 43.64870 7.52846 37870 ft 495 kts 43°
2026-05-06 12:54 43.69820 7.59396 37836 ft 494 kts 43°
2026-05-06 12:55 43.74786 7.65984 37861 ft 494 kts 43°
2026-05-06 12:55 43.79751 7.72585 37867 ft 493 kts 43°
2026-05-06 12:56 43.84120 7.79811 37854 ft 492 kts 54°
2026-05-06 12:56 43.88139 7.87509 37841 ft 492 kts 55°
2026-05-06 12:57 43.92059 7.95250 37833 ft 492 kts 56°
2026-05-06 12:57 43.95994 8.03046 37832 ft 493 kts 56°
2026-05-06 12:58 43.99950 8.10876 37828 ft 494 kts 56°
2026-05-06 12:58 44.03872 8.18674 37823 ft 494 kts 59°
2026-05-06 12:58 44.05498 8.22867 37830 ft 491 kts 70°
2026-05-06 12:59 44.06690 8.27304 37831 ft 489 kts 74°
2026-05-06 12:59 44.08752 8.36314 37827 ft 488 kts 77°
2026-05-06 13:00 44.10661 8.45412 37839 ft 490 kts 77°
2026-05-06 13:00 44.12562 8.54533 37849 ft 491 kts 77°
2026-05-06 13:01 44.14470 8.63607 37842 ft 492 kts 77°
2026-05-06 13:01 44.16397 8.72754 37833 ft 491 kts 77°
2026-05-06 13:02 44.18316 8.81890 37863 ft 492 kts 77°
2026-05-06 13:02 44.20230 8.91050 37859 ft 492 kts 77°
2026-05-06 13:03 44.22133 9.00199 37870 ft 492 kts 77°
2026-05-06 13:03 44.24018 9.09309 37833 ft 492 kts 77°
2026-05-06 13:04 44.25913 9.18503 37876 ft 488 kts 77°
2026-05-06 13:04 44.27773 9.27569 37883 ft 485 kts 77°
2026-05-06 13:05 44.29620 9.36619 37884 ft 485 kts 77°
2026-05-06 13:05 44.31451 9.45627 37885 ft 485 kts 77°
2026-05-06 13:06 44.33285 9.54693 37891 ft 486 kts 77°
2026-05-06 13:06 44.35118 9.63790 37882 ft 487 kts 77°
2026-05-06 13:07 44.36945 9.72896 37881 ft 487 kts 77°
2026-05-06 13:07 44.38766 9.82021 37888 ft 487 kts 77°
2026-05-06 13:08 44.40578 9.91140 37877 ft 487 kts 77°
2026-05-06 13:08 44.42382 10.00260 37882 ft 486 kts 77°
2026-05-06 13:09 44.44179 10.09384 37875 ft 487 kts 77°
2026-05-06 13:09 44.45968 10.18519 37886 ft 487 kts 77°
2026-05-06 13:10 44.47751 10.27658 37875 ft 485 kts 78°
2026-05-06 13:10 44.49517 10.36755 37883 ft 484 kts 78°
2026-05-06 13:11 44.51273 10.45848 37889 ft 484 kts 78°
2026-05-06 13:11 44.53024 10.54957 37887 ft 485 kts 78°
2026-05-06 13:12 44.54764 10.64050 37884 ft 485 kts 78°
2026-05-06 13:12 44.56498 10.73147 37889 ft 482 kts 79°
2026-05-06 13:13 44.58219 10.82226 37884 ft 482 kts 79°
2026-05-06 13:13 44.59936 10.91327 37883 ft 482 kts 79°
2026-05-06 13:14 44.61640 11.00406 37887 ft 482 kts 79°
2026-05-06 13:14 44.63343 11.09519 37890 ft 482 kts 79°
2026-05-06 13:15 44.65036 11.18622 37891 ft 482 kts 79°
2026-05-06 13:15 44.66723 11.27742 37881 ft 482 kts 79°
2026-05-06 13:16 44.68401 11.36851 37886 ft 482 kts 79°
2026-05-06 13:16 44.70063 11.45922 37885 ft 483 kts 79°
2026-05-06 13:17 44.71742 11.55129 37890 ft 483 kts 79°
2026-05-06 13:17 44.73124 11.62747 37891 ft 483 kts 79°
2026-05-06 13:18 44.75049 11.73403 37895 ft 483 kts 79°
2026-05-06 13:18 44.76696 11.82568 37893 ft 483 kts 79°
2026-05-06 13:19 44.78058 11.90184 37893 ft 481 kts 79°
2026-05-06 13:19 44.79681 11.99300 37895 ft 480 kts 79°
2026-05-06 13:20 44.81297 12.08426 37898 ft 480 kts 79°
2026-05-06 13:20 44.82903 12.17542 37897 ft 480 kts 79°
2026-05-06 13:21 44.84505 12.26681 37884 ft 480 kts 79°
2026-05-06 13:21 44.86098 12.35820 37898 ft 481 kts 79°
2026-05-06 13:22 44.87689 12.44987 37898 ft 481 kts 79°
2026-05-06 13:22 44.89270 12.54142 37905 ft 481 kts 79°
2026-05-06 13:23 44.90845 12.63314 37903 ft 482 kts 79°
2026-05-06 13:23 44.92416 12.72509 37901 ft 480 kts 79°
2026-05-06 13:24 44.93966 12.81625 37893 ft 477 kts 79°
2026-05-06 13:24 44.95503 12.90719 37903 ft 476 kts 79°
2026-05-06 13:25 44.97025 12.99773 38026 ft 477 kts 79°
2026-05-06 13:25 44.97796 13.04377 38251 ft 476 kts 79°
2026-05-06 13:25 44.98547 13.08867 38451 ft 475 kts 79°
2026-05-06 13:25 44.99305 13.13392 38654 ft 473 kts 79°
2026-05-06 13:26 45.00065 13.17916 38835 ft 472 kts 79°
2026-05-06 13:26 45.01583 13.26982 38917 ft 474 kts 79°
2026-05-06 13:27 45.03092 13.36036 38921 ft 473 kts 79°
2026-05-06 13:27 45.04591 13.45087 38929 ft 473 kts 79°
2026-05-06 13:28 45.06082 13.54141 38916 ft 473 kts 79°
2026-05-06 13:28 45.07568 13.63213 38939 ft 473 kts 80°
2026-05-06 13:29 45.09044 13.72272 38943 ft 473 kts 80°
2026-05-06 13:29 45.10506 13.81290 38956 ft 473 kts 80°
2026-05-06 13:30 45.11967 13.90357 38966 ft 473 kts 80°
2026-05-06 13:30 45.13422 13.99431 38962 ft 473 kts 80°
2026-05-06 13:31 45.14872 14.08519 38965 ft 472 kts 80°
2026-05-06 13:31 45.16310 14.17588 38972 ft 472 kts 80°
2026-05-06 13:32 45.17742 14.26673 38971 ft 472 kts 80°
2026-05-06 13:32 45.19165 14.35746 38969 ft 472 kts 80°
2026-05-06 13:33 45.20581 14.44820 38962 ft 471 kts 80°
2026-05-06 13:33 45.21998 14.53892 38963 ft 471 kts 78°
2026-05-06 13:34 45.24192 14.62665 38970 ft 473 kts 70°
2026-05-06 13:34 45.26702 14.71312 38966 ft 473 kts 69°
2026-05-06 13:35 45.29247 14.79863 38964 ft 473 kts 69°
2026-05-06 13:35 45.31803 14.88496 38961 ft 474 kts 69°
2026-05-06 13:36 45.34348 14.97172 38957 ft 477 kts 69°
2026-05-06 13:36 45.36886 15.05873 38934 ft 476 kts 69°
2026-05-06 13:37 45.39412 15.14578 38942 ft 475 kts 69°
2026-05-06 13:37 45.41925 15.23249 38930 ft 474 kts 69°
2026-05-06 13:38 45.44417 15.31881 38930 ft 474 kts 69°
2026-05-06 13:38 45.46915 15.40564 38927 ft 474 kts 69°
2026-05-06 13:39 45.49407 15.49258 38920 ft 474 kts 69°
2026-05-06 13:39 45.51894 15.57967 38930 ft 473 kts 69°
2026-05-06 13:40 45.54359 15.66629 38926 ft 472 kts 69°
2026-05-06 13:40 45.56822 15.75315 38925 ft 472 kts 69°
2026-05-06 13:41 45.59275 15.83994 38929 ft 471 kts 69°
2026-05-06 13:41 45.61717 15.92667 38925 ft 471 kts 69°
2026-05-06 13:42 45.64153 16.01351 38931 ft 471 kts 69°
2026-05-06 13:42 45.66582 16.10037 38928 ft 471 kts 69°
2026-05-06 13:43 45.69008 16.18748 38929 ft 471 kts 69°
2026-05-06 13:43 45.71424 16.27449 38921 ft 471 kts 69°
2026-05-06 13:44 45.73837 16.36177 38933 ft 471 kts 69°
2026-05-06 13:44 45.76242 16.44902 38928 ft 471 kts 69°
2026-05-06 13:45 45.78643 16.53646 38928 ft 470 kts 69°
2026-05-06 13:45 45.82202 16.66669 38921 ft 470 kts 69°
2026-05-06 13:46 45.84575 16.75389 38923 ft 470 kts 70°
2026-05-06 13:46 45.86943 16.84125 38919 ft 471 kts 69°
2026-05-06 13:47 45.89310 16.92890 38920 ft 471 kts 70°
2026-05-06 13:47 45.91677 17.01683 38921 ft 472 kts 70°
2026-05-06 13:48 45.94037 17.10486 38914 ft 473 kts 70°
2026-05-06 13:48 45.96393 17.19304 38918 ft 473 kts 70°
2026-05-06 13:49 45.98745 17.28144 38906 ft 473 kts 70°
2026-05-06 13:49 46.00831 17.37111 38914 ft 473 kts 74°
2026-05-06 13:50 46.02681 17.46192 38914 ft 473 kts 75°
2026-05-06 13:50 46.04518 17.55294 38918 ft 473 kts 74°
2026-05-06 13:51 46.06376 17.64365 38913 ft 472 kts 74°
2026-05-06 13:51 46.08246 17.73445 38913 ft 472 kts 74°
2026-05-06 13:52 46.10109 17.82511 38916 ft 472 kts 74°
2026-05-06 13:52 46.11954 17.91535 38921 ft 472 kts 74°
2026-05-06 13:53 46.13812 18.00669 38925 ft 472 kts 74°
2026-05-06 13:53 46.15650 18.09749 38935 ft 472 kts 74°
2026-05-06 13:54 46.17471 18.18790 38929 ft 472 kts 74°
2026-05-06 13:54 46.19299 18.27903 38927 ft 473 kts 74°